Back to catalog

STARLINK-4129

AliveCommunicationsVLEO
NORAD 53251·PAYLOAD·🇺🇸 United States

Launched Jul 24, 2022 from Cape Canaveral Space Force Station

Loading…

Next Passes (next 24 hours)

TLE

FreshSource: CelesTrak SupGP

Epoch: Sep 15, 2026, 02:21 UTC

1 53251C 22086K   26258.09840278 -.00029333  00000+0 -86683-3 0  2588
2 53251  53.1611  50.6243 0001161  83.2049 346.5025 15.34398871    15

Track STARLINK-4129 in real time with AllMySat

Download on the App Store